{"data":{"norad_id":45230,"epoch":"2026-09-20T03:14:05.270208Z","epoch_age_seconds":49770,"freshness":"FRESH","line1":"1 45230U 20012BE  26263.13478322  .00050958  00000+0  72779-3 0  9999","line2":"2 45230  53.1461 155.4601 0003572 145.1004 215.0243 15.55774565365584","mean_motion":15.55774565,"eccentricity":0.0003572,"inclination_deg":53.1461,"raan_deg":155.4601,"arg_perigee_deg":145.1004,"mean_anomaly_deg":215.0243,"bstar":0.00072779,"rev_number":36558,"period_min":92.558397109417,"perigee_km":397.48088317633,"apogee_km":402.323114237,"semimajor_km":6778.0389987067,"source":"CELESTRAK","updated_at":"2026-09-20T09:00:38.229188Z"}}